Vorticity
10 13 19 5 3 15 13 12 2 4 10 -11 -12 -8 7 -4 7 15 12 8 5 7 9 14 12 5 6 4 5 10 11 8 9 8 8 7 6 5 5 5 5 4 5 4
6 4 19 15 8 10 11 21 2 2 8 1 4 4 15 2 1 16 8 7 6 8 12 16 4 6 6 5 6 8 9 9 7 5 6 6 8 5 2 4 5 4 4 4
6 -2 10 15 10 6 9 12 9 1 2 3 6 7 14 5 3 15 13 12 11 8 13 13 4 5 4 4 7 8 7 7 9 8 9 7 4 5 3 4 5 5 4 5
8 1 0 10 13 10 9 2 15 1 -1 -0 3 6 7 -0 0 -2 13 18 13 10 12 8 7 7 4 4 5 6 7 7 8 6 5 5 7 6 6 7 4 6 5 5
-0 12 5 2 15 18 6 9 3 12 -2 -2 1 7 4 3 -1 3 10 14 10 9 9 8 6 5 3 4 5 5 6 6 8 8 8 6 7 6 7 6 6 6 5 6
5 8 5 3 6 13 14 5 6 5 10 1 11 9 17 5 6 3 -2 15 10 8 8 9 8 4 2 5 9 8 5 6 6 5 6 5 5 7 6 4 4 5 3 5
6 7 7 2 2 5 18 7 4 4 -3 2 13 4 14 18 6 5 3 9 10 8 13 5 4 5 8 14 8 5 4 4 4 4 4 4 4 4 5 4 4 4 4 3
2 10 5 5 5 4 5 13 14 3 6 6 4 9 3 16 13 7 2 10 10 8 10 9 8 7 6 7 8 8 6 6 4 4 4 4 4 6 7 5 4 8 4 2
3 5 6 6 10 6 8 2 15 2 30 -15 6 18 23 12 21 11 2 1 6 7 9 8 7 6 6 6 5 6 6 5 5 7 6 7 6 7 7 6 5 4 7 5
8 4 3 4 7 6 7 7 9 7 5 8 15 8 2 29 16 10 10 1 3 12 8 12 8 6 5 5 6 4 3 2 6 6 6 11 7 7 6 5 5 3 7 8
9 9 4 6 7 4 3 4 3 5 8 3 5 2 22 22 28 8 8 7 21 17 7 10 5 6 7 6 5 3 3 5 3 8 11 10 14 15 13 10 5 4 6 7
12 8 11 3 8 5 4 3 3 3 -2 4 -3 8 12 15 17 21 -5 3 19 13 13 9 6 6 8 8 7 4 3 5 6 10 3 3 8 15 18 18 14 10 9 6
6 2 13 6 13 5 7 6 4 3 5 6 4 1 -3 10 24 23 5 10 10 15 5 8 -1 -2 -0 -1 3 7 8 11 5 7 2 -6 4 9 13 12 10 11 14 17
6 7 3 10 19 26 8 6 3 4 4 1 1 -2 -1 11 16 13 15 10 0 0 -1 8 8 10 8 7 3 -3 10 5 5 13 9 1 -2 8 9 9 12 13 10 12
4 5 5 4 -3 4 10 3 5 -0 -0 -0 5 5 1 4 2 16 5 12 13 -1 3 1 10 11 7 3 6 4 10 -1 9 23 23 8 13 3 6 10 8 6 9 10
6 6 3 3 6 7 6 8 7 2 3 3 1 -0 8 3 10 11 12 9 8 13 4 -1 13 7 5 -0 -0 -0 -5 10 11 9 9 14 10 9 5 8 6 6 4 6
3 5 4 2 5 7 10 3 5 6 7 4 4 4 4 -2 2 17 23 12 15 4 11 7 13 11 3 1 -1 4 1 3 8 -3 4 10 10 12 7 6 7 7 5 5
6 5 7 5 4 4 -2 2 6 4 6 4 3 6 -0 3 4 6 12 14 10 13 3 2 11 12 5 3 -3 2 -3 3 2 -6 -0 1 21 4 11 12 9 8 7 8
9 5 8 8 7 -2 1 1 6 5 0 3 4 3 3 3 8 7 11 10 13 8 15 16 3 15 9 18 9 5 -12 -3 7 -1 2 4 14 12 20 12 3 3 2 7
10 4 3 6 6 7 -10 11 1 5 -2 7 2 3 7 5 8 2 8 13 3 11 5 8 10 9 16 23 24 21 29 28 9 5 9 6 7 17 13 17 3 3 -3 3
6 11 5 5 6 4 2 -3 2 3 7 7 -0 4 6 4 6 5 7 8 12 10 7 5 7 6 5 6 9 20 15 19 23 23 7 13 7 3 -3 3 10 6 7 5
27 0 9 5 6 8 2 10 -5 2 -1 10 5 8 -1 2 3 6 9 3 7 5 9 10 4 3 5 6 9 5 7 12 7 10 5 -1 7 2 0 -3 2 17 8 6
35 26 15 2 2 -7 17 -4 7 11 1 3 5 8 6 5 5 3 2 6 2 7 6 10 6 7 8 12 11 15 7 7 8 7 3 6 1 -6 17 7 8 10 5 3
23 40 28 26 2 6 -4 6 9 1 6 11 1 -0 2 8 17 -1 7 8 0 9 2 7 6 9 6 8 9 13 14 5 2 5 8 -0 -1 13 14 5 12 11 11 4
27 34 38 46 21 26 5 0 -3 7 11 -2 8 7 3 -1 -2 4 9 11 9 12 24 22 11 14 17 18 16 6 4 6 19 8 5 10 10 6 9 5 7 4 7 8
31 29 29 36 33 37 22 26 12 7 3 7 7 -3 8 14 4 5 9 2 7 10 -2 -10 -2 14 14 16 5 23 19 12 12 12 17 8 6 6 10 9 2 1 0 0
Height
5847 5848 5852 5857 5859 5864 5866 5870 5875 5878 5879 5882 5884 5884 5885 5885 5887 5888 5888 5888 5888 5889 5892 5895 5897 5901 5906 5908 5911 5914 5917 5920 5924 5926 5929 5931 5933 5934 5936 5937 5938 5939 5939 5939
5843 5846 5845 5848 5853 5859 5862 5866 5871 5874 5876 5880 5881 5881 5883 5884 5885 5886 5887 5887 5888 5889 5890 5893 5897 5901 5905 5908 5910 5913 5916 5919 5922 5926 5929 5932 5934 5935 5936 5936 5937 5938 5939 5939
5838 5840 5839 5842 5845 5850 5856 5863 5867 5870 5870 5875 5877 5878 5880 5881 5881 5883 5886 5887 5887 5888 5889 5893 5897 5901 5904 5907 5910 5912 5914 5917 5921 5924 5927 5930 5932 5934 5935 5936 5937 5938 5938 5939
5829 5832 5834 5838 5841 5845 5849 5857 5858 5861 5864 5869 5872 5876 5877 5878 5879 5881 5882 5886 5888 5889 5890 5893 5896 5900 5904 5907 5907 5910 5913 5917 5920 5923 5926 5928 5930 5932 5934 5935 5936 5937 5937 5936
5825 5828 5831 5834 5839 5840 5847 5848 5851 5857 5858 5861 5864 5867 5874 5874 5876 5879 5881 5883 5887 5888 5890 5892 5894 5898 5902 5905 5908 5909 5911 5915 5919 5922 5923 5925 5927 5929 5932 5933 5934 5935 5936 5935
5814 5818 5819 5828 5828 5833 5838 5840 5844 5848 5853 5848 5859 5861 5867 5868 5873 5876 5877 5879 5882 5887 5889 5890 5892 5896 5900 5903 5906 5908 5911 5914 5917 5920 5922 5924 5925 5927 5929 5930 5931 5933 5934 5934
5804 5808 5813 5816 5820 5825 5828 5832 5836 5837 5837 5841 5854 5853 5862 5861 5869 5872 5874 5876 5878 5882 5887 5888 5891 5894 5898 5903 5906 5909 5911 5914 5916 5918 5921 5922 5923 5924 5926 5927 5928 5929 5931 5932
5793 5799 5806 5811 5815 5819 5823 5827 5829 5830 5835 5840 5844 5846 5855 5861 5863 5866 5869 5871 5874 5876 5881 5886 5889 5892 5895 5899 5902 5905 5908 5910 5914 5916 5917 5918 5920 5922 5923 5924 5924 5926 5928 5930
5780 5789 5795 5802 5810 5813 5818 5814 5830 5830 5832 5834 5840 5844 5848 5854 5858 5861 5865 5868 5871 5876 5879 5883 5886 5889 5893 5896 5899 5903 5905 5908 5910 5913 5914 5915 5917 5918 5919 5920 5921 5924 5926 5927
5766 5776 5782 5791 5798 5802 5806 5818 5819 5820 5823 5827 5834 5839 5843 5848 5852 5856 5859 5864 5868 5872 5876 5881 5883 5886 5890 5893 5896 5899 5902 5904 5908 5909 5911 5912 5913 5914 5915 5916 5918 5921 5923 5925
5754 5764 5770 5776 5785 5793 5796 5801 5808 5814 5818 5824 5831 5836 5839 5844 5848 5852 5856 5860 5863 5868 5872 5876 5881 5883 5886 5889 5892 5896 5898 5901 5904 5906 5908 5909 5910 5911 5911 5913 5915 5917 5919 5921
5742 5750 5757 5768 5777 5783 5789 5795 5805 5807 5814 5819 5826 5833 5835 5839 5842 5846 5850 5855 5860 5863 5869 5872 5876 5880 5883 5887 5890 5893 5896 5898 5900 5901 5903 5905 5906 5907 5908 5910 5911 5912 5915 5916
5725 5737 5746 5752 5762 5768 5774 5784 5792 5797 5805 5811 5818 5826 5828 5834 5837 5841 5846 5849 5854 5860 5864 5868 5872 5876 5881 5884 5888 5891 5893 5894 5895 5897 5899 5901 5902 5903 5905 5906 5907 5909 5910 5911
5712 5722 5734 5746 5757 5760 5766 5774 5780 5787 5793 5805 5810 5818 5825 5829 5833 5837 5841 5845 5848 5853 5858 5864 5868 5873 5877 5880 5883 5886 5888 5891 5892 5892 5894 5898 5900 5900 5901 5902 5903 5906 5906 5907
5697 5708 5719 5728 5733 5744 5755 5765 5772 5774 5787 5794 5806 5810 5819 5825 5828 5830 5832 5835 5841 5846 5851 5855 5861 5866 5870 5874 5878 5881 5883 5886 5887 5888 5890 5894 5894 5895 5895 5897 5899 5901 5903 5904
5681 5692 5703 5715 5726 5735 5743 5751 5761 5767 5777 5786 5796 5801 5810 5815 5821 5826 5829 5831 5835 5840 5844 5850 5855 5860 5864 5867 5871 5875 5879 5881 5882 5885 5888 5889 5890 5891 5891 5893 5894 5896 5898 5900
5666 5676 5691 5704 5715 5722 5728 5743 5753 5759 5766 5775 5785 5794 5800 5810 5817 5822 5826 5828 5830 5834 5837 5843 5848 5852 5856 5860 5864 5869 5872 5873 5876 5880 5882 5884 5885 5885 5886 5888 5889 5892 5893 5894
5651 5663 5677 5689 5696 5706 5726 5732 5737 5745 5756 5765 5774 5781 5790 5799 5806 5812 5816 5819 5823 5827 5831 5836 5841 5845 5848 5852 5858 5862 5864 5868 5871 5873 5876 5878 5879 5880 5881 5883 5886 5887 5888 5890
5637 5649 5662 5674 5684 5699 5708 5715 5723 5731 5740 5751 5759 5764 5776 5788 5795 5802 5808 5813 5818 5822 5826 5830 5834 5837 5840 5844 5850 5852 5857 5860 5863 5867 5871 5873 5875 5875 5876 5879 5881 5881 5880 5881
5622 5634 5646 5659 5670 5681 5695 5700 5709 5718 5728 5736 5745 5753 5763 5778 5785 5792 5799 5804 5809 5813 5817 5820 5824 5829 5832 5839 5841 5844 5849 5852 5856 5860 5864 5865 5867 5869 5870 5872 5872 5873 5873 5873
5608 5619 5631 5644 5654 5666 5674 5684 5694 5705 5715 5721 5733 5741 5751 5764 5773 5781 5786 5795 5799 5804 5810 5813 5819 5823 5829 5831 5834 5838 5841 5846 5852 5852 5855 5857 5859 5861 5862 5863 5865 5866 5866 5865
5598 5607 5619 5630 5638 5645 5659 5670 5683 5688 5697 5709 5721 5730 5740 5751 5760 5769 5777 5784 5790 5795 5799 5804 5809 5814 5819 5825 5828 5831 5834 5841 5840 5845 5848 5850 5852 5854 5855 5856 5858 5858 5858 5859
5589 5595 5603 5615 5628 5635 5641 5651 5662 5677 5687 5699 5709 5720 5730 5740 5749 5756 5766 5773 5780 5785 5790 5795 5801 5805 5810 5815 5820 5823 5827 5829 5833 5836 5840 5842 5844 5846 5846 5848 5848 5849 5850 5850
5579 5584 5591 5598 5616 5620 5631 5640 5652 5659 5675 5683 5697 5708 5718 5729 5738 5745 5753 5762 5769 5775 5780 5786 5791 5795 5800 5806 5809 5813 5817 5821 5823 5826 5829 5831 5833 5836 5837 5837 5838 5839 5840 5840
5570 5574 5582 5588 5599 5606 5613 5627 5634 5642 5657 5672 5682 5694 5706 5716 5727 5733 5741 5749 5757 5763 5769 5774 5780 5784 5789 5794 5799 5803 5807 5811 5815 5818 5820 5822 5824 5825 5827 5827 5828 5829 5829 5828
5562 5565 5567 5577 5579 5584 5596 5608 5619 5632 5645 5657 5669 5681 5692 5702 5713 5720 5728 5737 5745 5752 5758 5763 5769 5773 5778 5784 5788 5793 5796 5799 5802 5806 5808 5811 5813 5815 5816 5817 5816 5816 5816 5816